Regional Weather Roundup
Issued by NWS New Orleans/Baton Rouge, LA

Home | Current Version | Previous Version | Text Only | Print | Product List | Glossary Off
Versions: 1 2 3 4 5 6 7 8 9 10 11 12 13 14 15 16 17 18 19 20 21 22 23 24 25 26 27 28 29 30 31 32 33 34 35 36 37 38 39 40 41 42 43 44 45 46 47 48 49 50

658
ASUS44 KLIX 272105
RWRLIX
NEW ORLEANS REGIONAL WEATHER ROUNDUP
NATIONAL WEATHER SERVICE NEW ORLEANS LA
400 PM CDT WED AUG 27 2014

NOTE: "FAIR" INDICATES FEW OR NO CLOUDS BELOW 12,000 FEET WITH NO
      SIGNIFICANT WEATHER AND/OR OBSTRUCTIONS TO VISIBILITY.
      SKY/WX - SKY CONDITION AND SIGNIFICANT WEATHER.
      TMP - AIR TEMPERATURE.     DP    - DEWPOINT TEMPERATURE.
      RH  - RELATIVE HUMIDITY.   PRES  - PRESSURE.
      HI  - HEAT INDEX.          WCI   - WIND CHILL INDEX.

*  THESE STATIONS ARE NOT NWS OR FAA STATIONS AND ARE NOT UNDER
   NWS QUALITY CONTROL.

LAZ038-040-048-061>063-065>067-069-272200-
SOUTHEAST LOUISIANA

CITY           SKY/WX    TMP DP  RH WIND       PRES   REMARKS
N.O. AUDUBON   NOT AVBL
N.O. INTL ARPT PTSUNNY   87  74  64 E10       29.98F HX  95
N.O. LAKEFRONT CLOUDY    86  75  69 E10       29.98F HX  95
N.O. DOWNTOWN* CLOUDY    84  72  65 SE7       30.00S
SLIDELL        PTSUNNY   82  72  71 W5        29.98F
BATON ROUGE    PTSUNNY   90  72  55 NE7       29.97F HX  97
BOOTHVILLE     MOSUNNY   87  76  69 E14       29.98F HX  97
BELLE CHASSE   RAIN      77  68  73 VRB5G21   29.98F
BOGALUSA*        N/A     91  71  50 SW14      29.99S HX  97
GALLIANO*      NOT AVBL
NEW ROADS*       N/A     90  71  54 E6        29.97F HX  96
GONZALES*        N/A     89  73  59 E5        29.97S HX  97
HAMMOND*       CLOUDY    86  68  54 N3        30.00F
HOUMA*         MOSUNNY   84  73  70 NE9       29.98
PORT FOURCHON* CLEAR     88  75  66 NE13      29.97F HX  97

$$

MSZ070-080>082-272200-
SOUTHERN MISSISSIPPI

CITY           SKY/WX    TMP DP  RH WIND       PRES   REMARKS
MCCOMB         MOSUNNY   92  66  42 VRB5      29.99F
GULFPORT       MOSUNNY   89  73  59 SE17      29.98F HX  97
BILOXI         CLOUDY    87  73  63 SE8       29.99F
PASCAGOULA     MOSUNNY   89  71  55 SE9       29.99F HX  95
STENNIS ARPT*  MOSUNNY  N/A N/A N/A SE10      29.99F

$$

COASTAL OBSERVATIONS
LAKE AND NEARSHORE STATIONS

STATION/POSITION TIME  TEMP    WIND        PRES    WAVE
                       AIR SEA DIR/SP/G            HT/PER
                 (UTC) (F)     (DEG/KT/KT) (MB)    (FT/S)
PASCAGOULA       2100   89     140/  9/ 17 1015.2
WAVELAND YACHT   2100   85     140/ 14/ 17 1015.0
GRAND ISLE       2100   85 84   70/ 12/ 15 1015.4
SOUTHWEST PASS   2100   90 89  100/ 23/ 26 1015.2
NEW CANAL        2100   87 85  140/  2/ 10 1015.8
SHELL BEACH      2100   85 82   90/ 15/ 17 1015.0

OFFSHORE STATIONS

STATION/POSITION TIME  TEMP    WIND        PRES    WAVE
                       AIR SEA DIR/SP/G            HT/PER
                 (UTC) (F)     (DEG/KT/KT) (MB)    (FT/S)
64 S DAUPHIN ISL 2050   85 86  100/ 16/ 19 1015.5

$$




USA.gov is the U.S. government's official web portal to all federal, state and local government web resources and services.